Weather History for Midland Airpark, TX

Change the Weather History Date:

Saturday, November 17, 2012

  Actual Average (KMAF) Record (KMAF)
Temperature  
Mean Temperature 57 °F 52 °F  
Max Temperature 67 °F 66 °F 84 °F (1981)
Min Temperature 47 °F 38 °F 18 °F (1959)
Degree Days  
Heating Degree Days 8 13  
Month to date heating degree days 167  
Since 1 July heating degree days 276  
Growing Degree Days 7 (Base 50)    
Moisture  
Dew Point 44 °F    
Average Humidity 59    
Maximum Humidity 78    
Minimum Humidity 43    
Precipitation  
Precipitation 0.00 in 0.03 in 1.31 in (1984)
Month to date precipitation 0.42  
Year to date precipitation 13.73  
Snow  
Snow 0.00 in - - ()
Month to date snowfall  
Since 1 July snowfall  
Since 1 September snowfall  
Snow Depth -    
Sea Level Pressure  
Sea Level Pressure 30.24 in    
Wind  
Wind Speed 7 mph (SSE)    
Max Wind Speed 15 mph    
Max Gust Speed 20 mph    
Visibility 10 miles    
Events      
T = Trace of Precipitation, MM = Missing Value Source: NWS Daily Summary

Daily Weather History Graph

Daily Weather History Graph

Search for Another Location

Airport:

Trip Planner

Search our weather history database for the weather conditions in past years. The results will help you decide how hot, cold, wet, or windy it might be!

Date:

Astronomy

Nov. 17, 2012 Rise Set
Actual Time 7:19 AM CST 5:47 PM CST
Civil Twilight 6:53 AM CST 6:13 PM CST
Nautical Twilight 6:23 AM CST 6:42 PM CST
Astronomical Twilight 5:54 AM CST 7:12 PM CST
Moon 11:05 AM CST (11/17) 9:58 PM CST (11/17)
Length of Visible Light 11h 19m
Length of Day
10h 27m
Waxing Crescent, 20% of the Moon is Illuminated
Nov 17
Waxing Crescent
Nov 20
First Quarter
Nov 28
Full
Dec 6
Last Quarter
Dec 13
New

Hourly Weather History & Observations

Time (CST) Temp. Dew Point Humidity Pressure Visibility Wind Dir Wind Speed Gust Speed Precip Events Conditions
12:15 AM 55.0 °F 46.6 °F 73% 30.28 in 10.0 mi SE 5.8 mph - N/A   Clear
12:35 AM 54.9 °F 46.6 °F 74% 30.28 in 10.0 mi ESE 3.5 mph - N/A   Scattered Clouds
12:55 AM 54.5 °F 46.6 °F 75% 30.29 in 10.0 mi Calm Calm - N/A   Scattered Clouds
1:15 AM 54.3 °F 46.6 °F 75% 30.27 in 10.0 mi ESE 5.8 mph - N/A   Scattered Clouds
1:35 AM 53.8 °F 46.4 °F 76% 30.27 in 10.0 mi SE 4.6 mph - N/A   Clear
1:55 AM 53.6 °F 46.4 °F 77% 30.27 in 10.0 mi ESE 4.6 mph - N/A   Clear
2:15 AM 53.2 °F 46.4 °F 78% 30.27 in 10.0 mi ESE 5.8 mph - N/A   Mostly Cloudy
2:35 AM 52.7 °F 45.9 °F 78% 30.27 in 10.0 mi SSE 5.8 mph - N/A   Scattered Clouds
2:55 AM 52.9 °F 45.9 °F 77% 30.26 in 10.0 mi SSE 4.6 mph - N/A   Mostly Cloudy
3:15 AM 53.6 °F 45.1 °F 73% 30.27 in 10.0 mi South 6.9 mph - N/A   Mostly Cloudy
3:35 AM 53.8 °F 44.4 °F 71% 30.27 in 10.0 mi SSE 6.9 mph - N/A   Mostly Cloudy
3:55 AM 54.0 °F 43.9 °F 69% 30.27 in 10.0 mi SSE 9.2 mph - N/A   Mostly Cloudy
4:15 AM 53.8 °F 43.2 °F 67% 30.26 in 10.0 mi SSE 8.1 mph - N/A   Overcast
4:35 AM 53.4 °F 43.0 °F 68% 30.26 in 10.0 mi SSE 4.6 mph - N/A   Mostly Cloudy
4:55 AM 52.7 °F 43.0 °F 70% 30.26 in 10.0 mi SE 3.5 mph - N/A   Scattered Clouds
5:15 AM 52.2 °F 42.6 °F 70% 30.26 in 10.0 mi East 3.5 mph - N/A   Mostly Cloudy
5:35 AM 51.6 °F 42.8 °F 72% 30.26 in 10.0 mi East 3.5 mph - N/A   Scattered Clouds
5:55 AM 50.4 °F 42.4 °F 74% 30.25 in 10.0 mi ESE 5.8 mph - N/A   Clear
6:15 AM 49.6 °F 41.5 °F 74% 30.26 in 10.0 mi SE 4.6 mph - N/A   Clear
6:35 AM 48.9 °F 41.0 °F 74% 30.26 in 10.0 mi SE 5.8 mph - N/A   Scattered Clouds
6:55 AM 49.1 °F 40.8 °F 73% 30.26 in 10.0 mi ESE 5.8 mph - N/A   Mostly Cloudy
7:15 AM 48.4 °F 40.5 °F 74% 30.27 in 10.0 mi ESE 5.8 mph - N/A   Scattered Clouds
7:35 AM 47.7 °F 40.3 °F 76% 30.28 in 10.0 mi ESE 3.5 mph - N/A   Clear
7:55 AM 47.5 °F 40.3 °F 76% 30.28 in 10.0 mi ESE 4.6 mph - N/A   Scattered Clouds
8:15 AM 48.2 °F 40.1 °F 74% 30.29 in 10.0 mi SE 5.8 mph - N/A   Scattered Clouds
8:35 AM 48.7 °F 40.1 °F 72% 30.31 in 10.0 mi SE 3.5 mph - N/A   Mostly Cloudy
8:55 AM 50.4 °F 40.1 °F 68% 30.31 in 10.0 mi SE 5.8 mph - N/A   Scattered Clouds
9:15 AM 52.2 °F 40.3 °F 64% 30.31 in 10.0 mi SE 8.1 mph - N/A   Scattered Clouds
9:35 AM 54.0 °F 40.1 °F 59% 30.31 in 10.0 mi SE 9.2 mph - N/A   Clear
9:55 AM 55.2 °F 40.5 °F 58% 30.31 in 10.0 mi SSE 6.9 mph - N/A   Clear
10:15 AM 56.5 °F 41.2 °F 57% 30.30 in 10.0 mi SSE 10.4 mph - N/A   Clear
10:35 AM 58.1 °F 41.7 °F 54% 30.30 in 10.0 mi SSE 11.5 mph - N/A   Clear
11:55 AM 63.1 °F 44.6 °F 51% 30.28 in 10.0 mi South 12.7 mph - N/A   Clear
12:15 PM 63.9 °F 44.6 °F 50% 30.27 in 10.0 mi SSE 12.7 mph 17.3 mph N/A   Clear
12:35 PM 64.9 °F 44.6 °F 48% 30.25 in 10.0 mi SE 11.5 mph - N/A   Clear
12:55 PM 65.5 °F 44.6 °F 47% 30.24 in 10.0 mi SSE 12.7 mph 18.4 mph N/A   Clear
1:15 PM 66.0 °F 44.8 °F 46% 30.23 in 10.0 mi SSE 10.4 mph 18.4 mph N/A   Clear
1:35 PM 66.2 °F 44.4 °F 45% 30.22 in 10.0 mi South 10.4 mph 17.3 mph N/A   Clear
1:55 PM 66.9 °F 44.1 °F 44% 30.21 in 10.0 mi South 10.4 mph - N/A   Clear
2:15 PM 67.1 °F 44.2 °F 44% 30.21 in 10.0 mi SSE 10.4 mph - N/A   Clear
2:35 PM 67.3 °F 44.2 °F 43% 30.21 in 10.0 mi SSE 10.4 mph - N/A   Clear
2:55 PM 67.3 °F 44.4 °F 44% 30.20 in 10.0 mi SE 12.7 mph - N/A   Clear
3:15 PM 67.6 °F 44.4 °F 43% 30.20 in 10.0 mi South 8.1 mph - N/A   Clear
3:35 PM 67.5 °F 44.4 °F 43% 30.19 in 10.0 mi South 10.4 mph - N/A   Clear
3:55 PM 67.6 °F 44.4 °F 43% 30.19 in 10.0 mi South 11.5 mph - N/A   Clear
4:15 PM 67.3 °F 44.6 °F 44% 30.19 in 10.0 mi SSE 11.5 mph - N/A   Clear
4:35 PM 67.5 °F 44.4 °F 43% 30.19 in 10.0 mi SSE 12.7 mph - N/A   Clear
4:55 PM 66.9 °F 44.2 °F 44% 30.19 in 10.0 mi South 11.5 mph - N/A   Clear
5:15 PM 66.4 °F 44.2 °F 45% 30.19 in 10.0 mi South 12.7 mph - N/A   Clear
5:35 PM 65.7 °F 44.2 °F 46% 30.19 in 10.0 mi South 10.4 mph - N/A   Clear
5:55 PM 64.8 °F 44.2 °F 47% 30.19 in 10.0 mi South 9.2 mph - N/A   Clear
6:15 PM 64.4 °F 44.1 °F 48% 30.19 in 10.0 mi SSE 9.2 mph - N/A   Clear
6:35 PM 64.2 °F 43.9 °F 48% 30.19 in 10.0 mi SSE 10.4 mph - N/A   Clear
6:55 PM 63.7 °F 44.1 °F 49% 30.20 in 10.0 mi SSE 10.4 mph - N/A   Clear
7:15 PM 63.1 °F 44.1 °F 50% 30.21 in 10.0 mi SSE 8.1 mph - N/A   Clear
7:35 PM 62.8 °F 44.1 °F 50% 30.20 in 10.0 mi SSE 8.1 mph - N/A   Clear
7:55 PM 62.8 °F 44.1 °F 50% 30.20 in 10.0 mi SSE 9.2 mph 16.1 mph N/A   Clear
8:15 PM 62.8 °F 43.7 °F 50% 30.20 in 10.0 mi SSE 11.5 mph - N/A   Clear
8:35 PM 62.4 °F 43.9 °F 51% 30.21 in 10.0 mi South 10.4 mph - N/A   Clear
8:55 PM 62.2 °F 43.9 °F 51% 30.21 in 10.0 mi South 11.5 mph - N/A   Clear
9:15 PM 61.9 °F 43.7 °F 51% 30.21 in 10.0 mi South 11.5 mph 16.1 mph N/A   Clear
9:35 PM 61.5 °F 43.9 °F 52% 30.20 in 10.0 mi South 12.7 mph - N/A   Clear
9:55 PM 61.0 °F 43.9 °F 53% 30.19 in 10.0 mi SSE 13.8 mph 18.4 mph N/A   Clear
10:15 PM 60.6 °F 44.1 °F 54% 30.19 in 10.0 mi SSE 13.8 mph 19.6 mph N/A   Clear
10:35 PM 60.1 °F 44.1 °F 55% 30.19 in 10.0 mi SSE 11.5 mph - N/A   Clear
10:55 PM 59.9 °F 44.1 °F 56% 30.19 in 10.0 mi South 10.4 mph - N/A   Clear
11:15 PM 59.5 °F 43.9 °F 56% 30.18 in 10.0 mi South 15.0 mph - N/A   Clear
11:35 PM 59.2 °F 43.2 °F 55% 30.17 in 10.0 mi SSE 12.7 mph 19.6 mph N/A   Clear
11:55 PM 58.8 °F 42.8 °F 55% 30.17 in 10.0 mi South 11.5 mph 18.4 mph N/A   Clear